DAL125 EGPH-EGCC

Flight info

Callsign DAL125
Flight time N/A
Altitude 23000
Route GOSAM P600 FENIK L612 LAKEY
Aircraft A320/M-SDE3FGHIRWY/LB1

Departure

Time 2026-04-20 18:37
Airport Edinburgh Airport (EGPH)

Arrival

Time N/A
Airport Manchester Airport (EGCC)
Time Latitude Longitude Altitude Speed Heading
2026-04-20 18:16 55.94752 -3.36602 107 ft 0 kts 89°
2026-04-20 18:23 55.94752 -3.36606 107 ft 2 kts 89°
2026-04-20 18:23 55.94752 -3.36637 107 ft 3 kts 89°
2026-04-20 18:23 55.94752 -3.36669 106 ft 3 kts 68°
2026-04-20 18:23 55.94742 -3.36696 105 ft 3 kts 32°
2026-04-20 18:24 55.94726 -3.36710 106 ft 2 kts 33°
2026-04-20 18:24 55.94721 -3.36717 107 ft 0 kts 32°
2026-04-20 18:29 55.94725 -3.36713 106 ft 3 kts 29°
2026-04-20 18:30 55.94752 -3.36724 107 ft 6 kts 348°
2026-04-20 18:30 55.94810 -3.36751 108 ft 11 kts 345°
2026-04-20 18:30 55.94855 -3.36772 108 ft 1 kts 345°
2026-04-20 18:30 55.94856 -3.36773 108 ft 0 kts 345°
2026-04-20 18:31 55.94857 -3.36773 109 ft 1 kts 345°
2026-04-20 18:31 55.94867 -3.36778 109 ft 3 kts 345°
2026-04-20 18:31 55.94912 -3.36820 110 ft 8 kts 323°
2026-04-20 18:31 55.94910 -3.36924 106 ft 12 kts 240°
2026-04-20 18:32 55.94880 -3.37022 109 ft 14 kts 240°
2026-04-20 18:32 55.94817 -3.37217 109 ft 14 kts 239°
2026-04-20 18:32 55.94768 -3.37364 112 ft 14 kts 240°
2026-04-20 18:32 55.94716 -3.37521 114 ft 16 kts 237°
2026-04-20 18:33 55.94674 -3.37642 116 ft 18 kts 239°
2026-04-20 18:33 55.94612 -3.37826 115 ft 12 kts 235°
2026-04-20 18:33 55.94593 -3.37875 116 ft 7 kts 235°
2026-04-20 18:33 55.94541 -3.38018 115 ft 13 kts 239°
2026-04-20 18:34 55.94507 -3.38125 114 ft 17 kts 240°
2026-04-20 18:34 55.94445 -3.38311 116 ft 18 kts 238°
2026-04-20 18:34 55.94376 -3.38510 117 ft 20 kts 239°
2026-04-20 18:34 55.94324 -3.38670 120 ft 15 kts 240°
2026-04-20 18:35 55.94301 -3.38742 119 ft 5 kts 241°
2026-04-20 18:35 55.94283 -3.38812 121 ft 7 kts 257°
2026-04-20 18:35 55.94309 -3.38886 122 ft 4 kts 326°
2026-04-20 18:35 55.94313 -3.38892 122 ft 0 kts 326°
2026-04-20 18:36 55.94316 -3.38895 123 ft 2 kts 326°
2026-04-20 18:36 55.94342 -3.38927 123 ft 8 kts 326°
2026-04-20 18:36 55.94409 -3.38956 119 ft 12 kts 30°
2026-04-20 18:37 55.94471 -3.38809 118 ft 22 kts 56°
2026-04-20 18:37 55.94674 -3.38211 117 ft 90 kts 60°
2026-04-20 18:37 55.95100 -3.36939 120 ft 146 kts 59°
2026-04-20 18:37 55.95627 -3.35390 753 ft 144 kts 59°
2026-04-20 18:38 55.96217 -3.33953 1470 ft 145 kts 46°
2026-04-20 18:38 55.96979 -3.32732 2030 ft 152 kts 46°
2026-04-20 18:38 55.97823 -3.31370 2331 ft 175 kts 45°
2026-04-20 18:38 55.98789 -3.29806 2615 ft 199 kts 45°
2026-04-20 18:39 55.99982 -3.28291 3016 ft 226 kts 21°
2026-04-20 18:39 56.01626 -3.28272 3493 ft 254 kts 342°
2026-04-20 18:39 56.03038 -3.30192 4278 ft 268 kts 305°
2026-04-20 18:39 56.03622 -3.33394 5166 ft 275 kts 271°
2026-04-20 18:40 56.03403 -3.36857 5798 ft 280 kts 256°
2026-04-20 18:40 56.02854 -3.40194 5971 ft 278 kts 250°
2026-04-20 18:40 56.02204 -3.43460 6010 ft 278 kts 250°
2026-04-20 18:40 56.01570 -3.46711 6011 ft 277 kts 251°
2026-04-20 18:41 56.00981 -3.50007 6012 ft 278 kts 252°
2026-04-20 18:41 56.00444 -3.53307 6015 ft 278 kts 254°
2026-04-20 18:41 55.99946 -3.56594 6272 ft 276 kts 255°
2026-04-20 18:41 55.99458 -3.59943 6812 ft 279 kts 255°
2026-04-20 18:42 55.98976 -3.63311 7317 ft 281 kts 255°
2026-04-20 18:42 55.98479 -3.66694 7805 ft 283 kts 248°
2026-04-20 18:42 55.97851 -3.70063 8271 ft 284 kts 243°
2026-04-20 18:42 55.97097 -3.73299 8746 ft 285 kts 239°
2026-04-20 18:43 55.96186 -3.76508 9265 ft 295 kts 234°
2026-04-20 18:43 55.95181 -3.79801 9862 ft 308 kts 240°
2026-04-20 18:43 55.94571 -3.82852 10377 ft 318 kts 251°
2026-04-20 18:43 55.94327 -3.86820 11047 ft 326 kts 267°
2026-04-20 18:44 55.94479 -3.89498 11538 ft 328 kts 274°
2026-04-20 18:44 55.94780 -3.94879 12689 ft 325 kts 259°
2026-04-20 18:44 55.94473 -3.97491 13268 ft 322 kts 244°
2026-04-20 18:44 55.93376 -4.00897 14137 ft 315 kts 221°
2026-04-20 18:45 55.91765 -4.03461 14888 ft 312 kts 214°
2026-04-20 18:45 55.90143 -4.06059 15463 ft 318 kts 217°
2026-04-20 18:45 55.88365 -4.08518 16022 ft 323 kts 213°
2026-04-20 18:45 55.86507 -4.10809 16671 ft 326 kts 211°
2026-04-20 18:46 55.84616 -4.13052 17336 ft 329 kts 211°
2026-04-20 18:46 55.82703 -4.15323 17990 ft 332 kts 211°
2026-04-20 18:46 55.80720 -4.17562 18541 ft 337 kts 203°
2026-04-20 18:46 55.78657 -4.19553 19016 ft 341 kts 199°
2026-04-20 18:47 55.76477 -4.21329 19511 ft 344 kts 196°
2026-04-20 18:47 55.74270 -4.22674 20069 ft 343 kts 187°
2026-04-20 18:47 55.71905 -4.23325 20650 ft 342 kts 177°
2026-04-20 18:47 55.69542 -4.23222 21228 ft 341 kts 167°
2026-04-20 18:48 55.67243 -4.22392 21810 ft 340 kts 158°
2026-04-20 18:48 55.64984 -4.20800 22400 ft 341 kts 149°
2026-04-20 18:48 55.62876 -4.18899 22973 ft 341 kts 145°
2026-04-20 18:48 55.60994 -4.16379 23614 ft 340 kts 126°
2026-04-20 18:49 55.60563 -4.15315 23809 ft 340 kts 115°